Skip Page Navigation
NASA JPL Caltech
NASA Logo - Jet Propulsion Laboratory + View the NASA Portal
+ Near-Earth Object (NEO) Program
Search JPL
JPL Home Earth Solar System Stars & Galaxies Technology
JPL Solar System Dynamics
BODIES ORBITS EPHEMERIDES TOOLS PHYSICAL DATA DISCOVERY FAQ SITE MAP
JPL Small-Body Database Browser
Search: [ help ]  
3377 Lodewijk (4122 P-L)
Classification: Main-belt Asteroid          SPK-ID: 2003377
Ephemeris | Orbit Diagram | Orbital Elements | Physical Parameters | Discovery Circumstances ]

[ show orbit diagram ]
Orbital Elements at Epoch 2456400.5 (2013-Apr-18.0) TDB
Reference: JPL 1 (heliocentric ecliptic J2000)
 Element Value Uncertainty (1-sigma)   Units 
e .05914646622309223 6.0322e-08  
a 2.914374279854155 1.6345e-08 AU
q 2.741999339949312 1.7227e-07 AU
i 1.299711838728057 5.9541e-06 deg
node 216.0030969169963 0.00024713 deg
peri 199.0850292644369 0.00025358 deg
M 161.3478905740343 5.7157e-05 deg
tp 2455586.026035421886
(2011-Jan-24.52603542)
0.00028759 JED
period 1817.257270640187
4.98
1.5288e-05
4.186e-08
d
yr
n .1981007344508676 1.6665e-09 deg/d
Q 3.086749219758997 1.7312e-08 AU
  Orbit Determination Parameters
   # obs. used (total)      1416  
   data-arc span      19203 days (52.57 yr)  
   first obs. used      1960-09-24  
   last obs. used      2013-04-22  
   planetary ephem.      DE405  
   SB-pert. ephem.      SB405-CPV-2  
   condition code      0  
   fit RMS      .51015  
   data source      ORB  
   producer      Otto Matic  
   solution date      2013-Apr-29 12:57:16  

Additional Information
 Earth MOID = 1.75258 AU 
 T_jup = 3.279 
[ show covariance matrix ]

Ephemeris | Orbit Diagram | Orbital Elements | Physical Parameters | Discovery Circumstances ]

Physical Parameter Table
Parameter Symbol Value Units Sigma Reference Notes
absolute magnitude H 12.6 mag n/a PDS3 (MPC 17268)  

3377 Lodewijk (4122 P-L)          Discovered 1960-Sep-24 by PLS at Palomar (675)
These planets have all been discovered as a result of the Palomar survey of faint minor planets and subsequently identified with planets observed at other oppositions. In Sept. and Oct. 1960, T. Gehrels exposed 130 plates with the 122 cm Schmidt camera at Palomar. In the following years C. J. van Houten and I. van Houten-Groeneveld measured these plates astrometrically and photometrically at Leiden. P. Herget, Cincinnati, computed the orbits of the planets found on the NORC computer, Dahlgren, Virginia, USA.
Note: "planet" implies "minor planet"
Reference: DISCOVERY.DBLast Updated: 2003-08-29

Alternate Designations
 4122 P-L = 1975 TB6 = 1978 GM3 = 1980 TY8 = 1982 BX2 = 1982 BZ10 
Ephemeris | Orbit Diagram | Orbital Elements | Physical Parameters | Discovery Circumstances ]
ABOUT SSD CREDITS/AWARDS PRIVACY/COPYRIGHT GLOSSARY LINKS
FirstGov 2013-May-22 11:54 UT
(server date/time)  
NASA Home Page
Site Manager:   Donald K. Yeomans
Webmaster  Alan B. Chamberlin